This is the latest recevied weather packets stored in our database for station/object SQ5LTL-2. If no packets are shown the sender has not sent any weather packets the latest 10 day(s).
| Time | Temp. | Humidity | Pressure | Rain* | Wind** | Luminosity | Snow |
|---|---|---|---|---|---|---|---|
| 1777566932 | 11.11° C | 31% | 1028 hPa | 0 mm | - | 30 W/m² | - |
| 1777566630 | 11.11° C | 31% | 1027.9 hPa | 0 mm | - | 37 W/m² | - |
| 1777566329 | 11.11° C | 31% | 1027.9 hPa | 0 mm | - | 42 W/m² | - |
| 1777566027 | 11.11° C | 31% | 1027.8 hPa | 0 mm | - | 47 W/m² | - |
| 1777565725 | 11.11° C | 31% | 1028 hPa | 0 mm | - | 56 W/m² | - |
| 1777565425 | 11.11° C | 31% | 1027.9 hPa | 0 mm | - | 58 W/m² | - |
| 1777565122 | 11.11° C | 31% | 1027.9 hPa | 0 mm | - | 59 W/m² | - |
| 1777564822 | 11.11° C | 32% | 1028.1 hPa | 0 mm | - | 60 W/m² | - |
| 1777564519 | 11.11° C | 30% | 1028.1 hPa | 0 mm | - | 57 W/m² | - |
| 1777564218 | 11.11° C | 30% | 1028.1 hPa | 0 mm | - | 59 W/m² | - |
| 1777563916 | 11.11° C | 29% | 1028.2 hPa | 0 mm | - | 59 W/m² | - |
| 1777563635 | 11.67° C | 28% | 1028.1 hPa | 0 mm | - | 56 W/m² | - |
| 1777563334 | 11.67° C | 28% | 1028.1 hPa | 0 mm | - | 56 W/m² | - |
| 1777563032 | 11.67° C | 29% | 1028 hPa | 0 mm | - | 63 W/m² | - |
| 1777562731 | 12.22° C | 29% | 1028 hPa | 0 mm | - | 84 W/m² | - |
| 1777562429 | 12.78° C | 27% | 1028 hPa | 0 mm | - | 126 W/m² | - |
| 1777562127 | 13.33° C | 29% | 1028 hPa | 0 mm | - | 258 W/m² | - |
| 1777561827 | 12.78° C | 28% | 1028 hPa | 0 mm | - | 289 W/m² | - |
| 1777561525 | 13.33° C | 27% | 1028.1 hPa | 0 mm | - | 325 W/m² | - |
| 1777561223 | 13.33° C | 27% | 1028 hPa | 0 mm | - | 331 W/m² | - |
| 1777560922 | 12.78° C | 27% | 1028 hPa | 0 mm | - | 304 W/m² | - |
| 1777560620 | 12.78° C | 27% | 1028.1 hPa | 0 mm | - | 361 W/m² | - |
| 1777560319 | 12.78° C | 28% | 1028.2 hPa | 0 mm | - | 373 W/m² | - |
| 1777560019 | 12.22° C | 28% | 1028.1 hPa | 0 mm | - | 373 W/m² | - |
| 1777559716 | 12.22° C | 29% | 1028.1 hPa | 0 mm | - | 352 W/m² | - |
* Rain latest hour (hover to see other rain measurements)
** Current wind speed in m/s (hover to see current wind gust speed)